SL-8 R/B, 2802

Orbit data source: Space-Track

SL-8 R/B, 2802 is space debris in LEO originally from a launch on Mon, 15 May 1967 UTC launched from the Plesetsk Missile And Space Complex (PKMTR). Debris objects in space refer to the collection of defunct objects orbiting the Earth. Examples of debris include non-operational satellites, rocket bodies, and fragments generated from explosions, collisions, or faulty payload assembly.

Loading next visibility...
Identifier
2802, 1967-045B
Orbit
LEO
Last TLE update
12 hours ago
Origin
Manufacturer
Yuzhnoe
Mission
Spacecraft
Bus & Motor
S3, Unknown motor
Mass
1,434 kg wet, 1,434 kg dry
Launch date (UTC)
1967-05-15 (58 years ago)
Launch vehicle
Unknown
Launch site
Plesetsk Missile And Space Complex (PKMTR)
Object type
Payload
Rocket body
Debris
Shape & HBR
Cyl, 4.2 m
Radar Cross Section
10.179 m², Large (>1 m²)

Expand to show TLE details & history

TLE from 12 hours ago
0 SL-8 R/B
1 02802U 67045B   25181.51740701  .00000189  00000-0  60117-4 0  9993
2 02802  74.0117  98.9412 0064396 168.1438 192.1255 14.45381458 52584
Epoch: 2025-06-30T12:25Z
TLE epoch observation values (Epoch: 2025-06-30T12:25:03.965Z)
Latitude
-0.00001°
Longitude
-6.1514°
Altitude
788.235 km
Speed
7.436 km/s
True Right ascension
06h 35m 45s
True Declination
0° 00' 00"
Sunlit
Object was in daylight at epoch
Visualization orbit readout
Latitude
6.35415°
Longitude
-5.23916°
Altitude
785.963 km
Speed
7.439 km/s
Apparent Right ascension
04h 04m 06s
Apparent Declination
-23° 27' 41"
Sunlit
Object is in daylight
Visualization observer readout
Local Sidereal Time
11:41:20
Azimuth
265.686° W
Elevation
-33.031°
Doppler factor
1
Orbital elements
Apogee altitude
784.216 km
Perigee altitude
692.561 km
Semi-major axis
7,116.526 km
Eccentricity
0.00644
Inclination
74.0117°
RAAN
98.9412°
Arg. of periapsis
168.1438°
True anomaly
Unknown
Mean anomaly
192.1255°
Eccentric anomaly
Unknown
Mean motion
3.61527 °/min
Orbital period
99.58 mins
BSTAR
0.000060117
Loading maneuver chart data...
Loading SW <> Apogee altitude chart data...
Loading historical data...
Loading historical data...
Loading historical data...
Loading historical data...
Loading historical data...
Loading historical data...
Loading historical data...
Other satellites on launch #45 in the year 1967 (1967-05-15 UTC)

SL-8 R/B Visibility forecast

Observer location: undefined°, undefined°

Span
Click to sort rows by Start time (UTC) header in descending order
Start Az.
Max El. time (UTC)
Max El. Az.
Max El.
End time (UTC)
End Az.
8 mins2025-07-01 05:35:35.247Z349.976° N2025-07-01 05:39:35.247Z61.605° ENE41.034°2025-07-01 05:43:35.247Z147.065° SSE
5 mins2025-07-01 18:27:35.247Z129.013° SE2025-07-01 18:29:35.247Z102.243° ESE18.188°2025-07-01 18:32:35.247Z61.46° ENE
8 mins2025-07-01 20:07:35.247Z225.843° WSW2025-07-01 20:10:35.247Z277.282° WNW36.274°2025-07-01 20:15:35.247Z6.312° NNE
|